Simultaneous Nadir Overpasses (SNOs) Predictions

Prediction of SNOs between LANDSAT-8 and METOP-A Satellite Orbit:

Table of predicted SNOs for the next 14.0 days since TLE Epoch: 5/5/2017
Index Date (LANDSAT-8) Time (LANDSAT-8) Lat,Lon (LANDSAT-8) SZA (LANDSAT-8 ) Date (METOP-A) Time (METOP-A) Lat,Lon (METOP-A) SZA (METOP-A ) Distance(km) Time Diff (sec)
1 05/06/2017 15:57:28 -81.19, 161.70 113.20 05/06/2017 15:56:58 -81.19, 161.58 113.23 2.13 30
2 05/06/2017 16:46:53 81.22, -30.18 66.86 05/06/2017 16:47:36 81.22, -30.14 66.89 0.78 43
3 05/09/2017 11:31:44 -81.20,-131.70 113.93 05/09/2017 11:31:18 -81.20,-131.84 113.96 2.53 26
4 05/09/2017 12:21:10 81.21, 36.02 66.08 05/09/2017 12:21:57 81.21, 36.05 66.11 0.76 47
5 05/12/2017 07:06:02 -81.19, -65.52 114.69 05/12/2017 07:05:40 -81.19, -65.65 114.71 2.28 22
6 05/12/2017 07:55:27 81.21, 102.54 65.37 05/12/2017 07:56:18 81.22, 102.62 65.41 1.32 51
7 05/15/2017 02:40:19 -81.19, 0.98 115.36 05/15/2017 02:40:01 -81.19, 0.90 115.37 1.37 18
8 05/15/2017 03:29:44 81.22, 169.02 64.70 05/15/2017 03:30:39 81.22, 169.17 64.75 2.61 55
9 05/17/2017 22:14:35 -81.19, 67.42 115.99 05/17/2017 22:14:21 -81.20, 67.44 115.99 0.63 14




NCC Satellite Simultaneous Nadir Overpasses (SNOs) Prediction Service
